| time (UTC) | temp F | wind direction | speed MPH | gust MPH | rain 1hr in | rain 24hr in | rain mn in | humidity % | barometer mb |
| 20260510153216 | 66 | 74 | 2.0 | 6.0 | 0.00 | 0.11 | 0.01 | 80 | 1013.7 |
| 20260510152442 | 65 | 50 | 3.0 | 6.0 | 0.00 | 0.11 | 0.01 | 82 | 1013.7 |
| 20260510151941 | 65 | 68 | 2.0 | 6.0 | 0.00 | 0.11 | 0.01 | 83 | 1013.6 |
| 20260510151426 | 64 | 65 | 2.0 | 6.0 | 0.00 | 0.11 | 0.01 | 84 | 1013.6 |
| 20260510150922 | 63 | 57 | 2.0 | 6.0 | 0.00 | 0.11 | 0.01 | 83 | 1013.7 |
| 20260510150422 | 63 | 101 | 2.0 | 5.0 | 0.00 | 0.11 | 0.01 | 86 | 1013.8 |
| 20260510145901 | 63 | 106 | 2.0 | 5.0 | 0.00 | 0.11 | 0.01 | 85 | 1013.7 |
| 20260510145403 | 62 | 82 | 2.0 | 5.0 | 0.00 | 0.11 | 0.01 | 85 | 1013.6 |
| 20260510144859 | 61 | 94 | 2.0 | 4.0 | 0.00 | 0.11 | 0.01 | 87 | 1013.6 |
| 20260510144356 | 61 | 74 | 2.0 | 4.0 | 0.00 | 0.11 | 0.01 | 86 | 1013.6 |
| 20260510143902 | 60 | 93 | 2.0 | 4.0 | 0.00 | 0.11 | 0.01 | 88 | 1013.6 |
| 20260510143854 | 61 | 79 | 2.0 | 4.0 | 0.00 | 0.11 | 0.01 | 87 | 1013.6 |
| 20260510142827 | 60 | 105 | 2.0 | 4.0 | 0.00 | 0.11 | 0.01 | 89 | 1013.6 |
| 20260510142306 | 59 | 49 | 2.0 | 5.0 | 0.00 | 0.11 | 0.01 | 89 | 1013.6 |
| 20260510141747 | 58 | 65 | 2.0 | 5.0 | 0.00 | 0.11 | 0.01 | 89 | 1013.5 |
| 20260510141241 | 59 | 84 | 1.0 | 4.0 | 0.00 | 0.11 | 0.01 | 91 | 1013.6 |
| 20260510140714 | 58 | 79 | 1.0 | 4.0 | 0.00 | 0.11 | 0.01 | 91 | 1013.4 |
| 20260510140430 | 58 | 94 | 1.0 | 4.0 | 0.00 | 0.11 | 0.01 | 91 | 1013.5 |
| 20260510135928 | 58 | 85 | 1.0 | 4.0 | 0.00 | 0.11 | 0.01 | 92 | 1013.4 |
| 20260510135138 | 57 | 88 | 1.0 | 3.0 | 0.00 | 0.11 | 0.01 | 92 | 1013.4 |
| 20260510134847 | 57 | 80 | 1.0 | 3.0 | 0.00 | 0.11 | 0.01 | 93 | 1013.4 |
| 20260510134117 | 56 | 92 | 1.0 | 3.0 | 0.00 | 0.11 | 0.01 | 92 | 1013.4 |
| 20260510133549 | 56 | 110 | 0.0 | 2.0 | 0.00 | 0.11 | 0.01 | 93 | 1013.3 |
| 20260510133031 | 56 | 73 | 0.0 | 2.0 | 0.00 | 0.11 | 0.01 | 93 | 1013.3 |
| 20260510132518 | 55 | 134 | 0.0 | 1.0 | 0.00 | 0.11 | 0.01 | 93 | 1013.4 |
| 20260510132018 | 55 | 136 | 0.0 | 0.0 | 0.00 | 0.11 | 0.01 | 93 | 1013.5 |
| 20260510131517 | 55 | 136 | 0.0 | 2.0 | 0.00 | 0.11 | 0.01 | 93 | 1013.6 |
| 20260510131004 | 54 | 91 | 0.0 | 2.0 | 0.00 | 0.11 | 0.01 | 93 | 1013.6 |
| 20260510130712 | 54 | 91 | 0.0 | 4.0 | 0.00 | 0.11 | 0.01 | 93 | 1013.8 |
| 20260510125925 | 54 | 84 | 1.0 | 4.0 | 0.00 | 0.11 | 0.01 | 93 | 1013.7 |
| 20260510125424 | 54 | 86 | 1.0 | 3.0 | 0.00 | 0.11 | 0.01 | 93 | 1013.6 |
| 20260510124915 | 54 | 96 | 1.0 | 2.0 | 0.00 | 0.11 | 0.01 | 93 | 1013.7 |
| 20260510124413 | 54 | 96 | 1.0 | 3.0 | 0.00 | 0.11 | 0.01 | 93 | 1013.5 |
| 20260510124355 | 53 | 96 | 1.0 | 3.0 | 0.00 | 0.11 | 0.01 | 93 | 1013.3 |
| 20260510123347 | 53 | 124 | 0.0 | 1.0 | 0.00 | 0.11 | 0.01 | 93 | 1013.2 |
| 20260510122844 | 53 | 124 | 0.0 | 2.0 | 0.00 | 0.11 | 0.01 | 93 | 1013.2 |
| 20260510122344 | 53 | 141 | 0.0 | 2.0 | 0.00 | 0.11 | 0.01 | 93 | 1013.1 |
| 20260510121837 | 53 | 163 | 0.0 | 0.0 | 0.00 | 0.11 | 0.01 | 94 | 1012.9 |
| 20260510121340 | 53 | 163 | 0.0 | 0.0 | 0.00 | 0.11 | 0.01 | 93 | 1012.9 |
| 20260510120821 | 53 | 163 | 0.0 | 0.0 | 0.00 | 0.11 | 0.01 | 94 | 1012.8 |
| 20260510120320 | 53 | 163 | 0.0 | 0.0 | 0.00 | 0.11 | 0.01 | 94 | 1012.8 |
| 20260510115816 | 52 | 163 | 0.0 | 0.0 | 0.00 | 0.11 | 0.01 | 94 | 1012.7 |
| 20260510115317 | 53 | 163 | 0.0 | 0.0 | 0.00 | 0.11 | 0.01 | 94 | 1012.8 |
| 20260510114816 | 52 | 163 | 0.0 | 0.0 | 0.00 | 0.11 | 0.01 | 94 | 1012.6 |
| 20260510114302 | 52 | 163 | 0.0 | 0.0 | 0.00 | 0.11 | 0.01 | 94 | 1012.6 |
| 20260510113806 | 52 | 163 | 0.0 | 0.0 | 0.00 | 0.11 | 0.01 | 94 | 1012.7 |
| 20260510113237 | 52 | 163 | 0.0 | 0.0 | 0.00 | 0.11 | 0.01 | 94 | 1012.7 |
| 20260510112719 | 52 | 163 | 0.0 | 0.0 | 0.00 | 0.11 | 0.01 | 94 | 1012.7 |
| 20260510112217 | 52 | 162 | 0.0 | 0.0 | 0.00 | 0.11 | 0.01 | 94 | 1012.7 |
| 20260510111720 | 52 | 174 | 0.0 | 0.0 | 0.00 | 0.11 | 0.01 | 94 | 1012.7 |
| 20260510111152 | 51 | 174 | 0.0 | 0.0 | 0.00 | 0.11 | 0.01 | 94 | 1012.7 |
| 20260510110648 | 51 | 174 | 0.0 | 0.0 | 0.00 | 0.11 | 0.01 | 94 | 1012.7 |
| 20260510110151 | 51 | 174 | 0.0 | 0.0 | 0.00 | 0.11 | 0.01 | 94 | 1012.6 |
| 20260510110131 | 51 | 174 | 0.0 | 1.0 | 0.00 | 0.11 | 0.01 | 94 | 1012.5 |
| 20260510105128 | 51 | 174 | 0.0 | 1.0 | 0.00 | 0.11 | 0.01 | 94 | 1012.4 |
| 20260510104618 | 51 | 174 | 0.0 | 0.0 | 0.00 | 0.11 | 0.01 | 94 | 1012.2 |
| 20260510104118 | 51 | 174 | 0.0 | 0.0 | 0.00 | 0.11 | 0.01 | 94 | 1012.0 |
| 20260510103618 | 51 | 174 | 0.0 | 0.0 | 0.00 | 0.11 | 0.01 | 94 | 1012.0 |
| 20260510103114 | 51 | 174 | 0.0 | 0.0 | 0.00 | 0.11 | 0.01 | 94 | 1012.0 |
| 20260510102614 | 51 | 174 | 0.0 | 0.0 | 0.00 | 0.11 | 0.01 | 94 | 1011.9 |
| 20260510102114 | 51 | 174 | 0.0 | 0.0 | 0.00 | 0.11 | 0.01 | 94 | 1012.0 |
| 20260510101613 | 51 | 174 | 0.0 | 0.0 | 0.00 | 0.11 | 0.01 | 94 | 1011.9 |
| 20260510101112 | 51 | 174 | 0.0 | 0.0 | 0.00 | 0.11 | 0.01 | 94 | 1012.0 |
| 20260510100613 | 51 | 174 | 0.0 | 0.0 | 0.00 | 0.11 | 0.01 | 94 | 1012.0 |
| 20260510100049 | 51 | 174 | 0.0 | 0.0 | 0.00 | 0.11 | 0.01 | 94 | 1011.9 |
| 20260510095524 | 51 | 174 | 0.0 | 0.0 | 0.00 | 0.11 | 0.01 | 94 | 1011.9 |
| 20260510095023 | 51 | 174 | 0.0 | 0.0 | 0.00 | 0.11 | 0.01 | 94 | 1011.9 |
| 20260510094509 | 51 | 174 | 0.0 | 0.0 | 0.00 | 0.11 | 0.01 | 94 | 1011.9 |
| 20260510094010 | 51 | 174 | 0.0 | 0.0 | 0.00 | 0.11 | 0.01 | 94 | 1011.8 |
| 20260510093500 | 51 | 174 | 0.0 | 0.0 | 0.00 | 0.11 | 0.01 | 94 | 1011.8 |
| 20260510093000 | 50 | 174 | 0.0 | 0.0 | 0.00 | 0.11 | 0.01 | 94 | 1011.7 |
| 20260510092450 | 50 | 174 | 0.0 | 0.0 | 0.00 | 0.11 | 0.01 | 94 | 1011.9 |
| 20260510091952 | 50 | 174 | 0.0 | 0.0 | 0.00 | 0.11 | 0.01 | 94 | 1012.2 |
| 20260510091453 | 50 | 174 | 0.0 | 0.0 | 0.00 | 0.11 | 0.01 | 94 | 1012.2 |
| 20260510090941 | 50 | 174 | 0.0 | 1.0 | 0.00 | 0.11 | 0.01 | 94 | 1012.0 |
| 20260510090446 | 50 | 174 | 0.0 | 1.0 | 0.00 | 0.11 | 0.01 | 93 | 1012.0 |
| 20260510085937 | 50 | 174 | 0.0 | 2.0 | 0.00 | 0.11 | 0.01 | 93 | 1012.0 |
| 20260510085435 | 50 | 174 | 0.0 | 2.0 | 0.00 | 0.11 | 0.01 | 93 | 1012.2 |
| 20260510085430 | 50 | 170 | 0.0 | 2.0 | 0.00 | 0.11 | 0.01 | 93 | 1012.0 |
| 20260510084406 | 50 | 170 | 0.0 | 2.0 | 0.00 | 0.11 | 0.01 | 93 | 1012.2 |
| 20260510083909 | 50 | 166 | 0.0 | 1.0 | 0.00 | 0.11 | 0.01 | 93 | 1012.3 |
| 20260510083349 | 50 | 174 | 0.0 | 1.0 | 0.00 | 0.11 | 0.01 | 93 | 1012.0 |
| 20260510082852 | 50 | 155 | 0.0 | 2.0 | 0.00 | 0.11 | 0.01 | 93 | 1012.2 |
| 20260510082619 | 50 | 217 | 0.0 | 2.0 | 0.00 | 0.11 | 0.01 | 94 | 1012.0 |
| 20260510081850 | 50 | 165 | 0.0 | 2.0 | 0.00 | 0.11 | 0.01 | 93 | 1011.9 |
| 20260510081324 | 50 | 155 | 0.0 | 1.0 | 0.00 | 0.11 | 0.01 | 93 | 1012.0 |
| 20260510080823 | 50 | 169 | 0.0 | 0.0 | 0.00 | 0.11 | 0.01 | 93 | 1011.4 |
| 20260510080258 | 50 | 169 | 0.0 | 0.0 | 0.00 | 0.11 | 0.01 | 93 | 1011.3 |
| 20260510075758 | 50 | 169 | 0.0 | 0.0 | 0.00 | 0.11 | 0.01 | 93 | 1011.4 |
| 20260510075257 | 50 | 169 | 0.0 | 0.0 | 0.00 | 0.11 | 0.01 | 93 | 1011.3 |
| 20260510075030 | 50 | 169 | 0.0 | 0.0 | 0.00 | 0.11 | 0.01 | 93 | 1011.3 |
| 20260510074522 | 50 | 169 | 0.0 | 0.0 | 0.00 | 0.11 | 0.01 | 93 | 1011.3 |
| 20260510073723 | 50 | 169 | 0.0 | 0.0 | 0.00 | 0.11 | 0.01 | 93 | 1011.3 |
| 20260510073425 | 50 | 169 | 0.0 | 0.0 | 0.00 | 0.11 | 0.01 | 93 | 1011.3 |
| 20260510072651 | 50 | 169 | 0.0 | 0.0 | 0.00 | 0.11 | 0.01 | 93 | 1011.3 |
| 20260510072400 | 50 | 169 | 0.0 | 0.0 | 0.00 | 0.11 | 0.01 | 93 | 1011.3 |
| 20260510071632 | 50 | 169 | 0.0 | 0.0 | 0.00 | 0.11 | 0.01 | 93 | 1011.2 |
| 20260510071116 | 49 | 169 | 0.0 | 0.0 | 0.00 | 0.11 | 0.01 | 93 | 1011.2 |
| 20260510070607 | 49 | 169 | 0.0 | 1.0 | 0.00 | 0.11 | 0.01 | 93 | 1011.2 |
| 20260510070104 | 49 | 169 | 0.0 | 1.0 | 0.00 | 0.11 | 0.01 | 93 | 1011.3 |
| 20260510065537 | 49 | 169 | 0.0 | 1.0 | 0.00 | 0.11 | 0.01 | 93 | 1011.2 |
| 20260510065027 | 49 | 169 | 0.0 | 1.0 | 0.00 | 0.11 | 0.01 | 93 | 1011.2 |
| 20260510064759 | 49 | 169 | 0.0 | 0.0 | 0.00 | 0.11 | 0.01 | 93 | 1011.3 |
| 20260510064030 | 49 | 169 | 0.0 | 1.0 | 0.00 | 0.11 | 0.01 | 93 | 1011.2 |
| 20260510063524 | 49 | 185 | 0.0 | 1.0 | 0.01 | 0.11 | 0.01 | 93 | 1011.2 |
| 20260510063240 | 49 | 185 | 0.0 | 0.0 | 0.01 | 0.11 | 0.01 | 93 | 1011.2 |
| 20260510062508 | 49 | 185 | 0.0 | 0.0 | 0.01 | 0.11 | 0.01 | 93 | 1011.1 |
| 20260510062237 | 49 | 185 | 0.0 | 0.0 | 0.01 | 0.11 | 0.01 | 93 | 1011.1 |
| 20260510061437 | 49 | 185 | 0.0 | 0.0 | 0.01 | 0.11 | 0.01 | 93 | 1011.1 |
| 20260510060912 | 49 | 185 | 0.0 | 0.0 | 0.01 | 0.11 | 0.01 | 93 | 1011.1 |
| 20260510060358 | 49 | 185 | 0.0 | 0.0 | 0.01 | 0.11 | 0.01 | 93 | 1011.1 |
| 20260510055857 | 49 | 185 | 0.0 | 0.0 | 0.01 | 0.11 | 0.01 | 93 | 1011.1 |
| 20260510055359 | 49 | 185 | 0.0 | 0.0 | 0.01 | 0.11 | 0.01 | 93 | 1011.1 |
| 20260510055355 | 49 | 185 | 0.0 | 0.0 | 0.01 | 0.11 | 0.01 | 93 | 1011.1 |
| 20260510054339 | 49 | 185 | 0.0 | 0.0 | 0.01 | 0.11 | 0.01 | 93 | 1011.2 |
| 20260510053811 | 49 | 186 | 0.0 | 0.0 | 0.00 | 0.10 | 0.00 | 93 | 1011.2 |
| 20260510053313 | 49 | 185 | 0.0 | 0.0 | 0.00 | 0.10 | 0.00 | 93 | 1011.2 |
| 20260510053046 | 49 | 185 | 0.0 | 0.0 | 0.00 | 0.10 | 0.00 | 93 | 1011.3 |
| 20260510052251 | 49 | 185 | 0.0 | 0.0 | 0.00 | 0.10 | 0.00 | 93 | 1011.1 |
| 20260510051749 | 49 | 185 | 0.0 | 0.0 | 0.00 | 0.10 | 0.00 | 93 | 1011.3 |
| 20260510051249 | 49 | 185 | 0.0 | 0.0 | 0.00 | 0.10 | 0.00 | 93 | 1011.4 |
| 20260510050745 | 49 | 186 | 0.0 | 0.0 | 0.00 | 0.10 | 0.00 | 93 | 1011.3 |
| 20260510050215 | 49 | 186 | 0.0 | 0.0 | 0.00 | 0.10 | 0.00 | 93 | 1011.4 |
| 20260510045717 | 49 | 185 | 0.0 | 0.0 | 0.00 | 0.10 | 0.00 | 93 | 1011.3 |
| 20260510045205 | 49 | 186 | 0.0 | 0.0 | 0.00 | 0.10 | 0.00 | 93 | 1011.4 |
| 20260510044932 | 48 | 186 | 0.0 | 0.0 | 0.00 | 0.10 | 0.00 | 93 | 1011.4 |
| 20260510044418 | 48 | 185 | 0.0 | 0.0 | 0.00 | 0.10 | 0.00 | 93 | 1011.4 |
| 20260510043643 | 48 | 186 | 0.0 | 0.0 | 0.00 | 0.10 | 0.00 | 93 | 1011.5 |
| 20260510043131 | 48 | 185 | 0.0 | 0.0 | 0.00 | 0.10 | 0.00 | 93 | 1011.6 |
| 20260510042629 | 48 | 185 | 0.0 | 0.0 | 0.00 | 0.10 | 0.00 | 93 | 1011.5 |
| 20260510042337 | 48 | 186 | 0.0 | 0.0 | 0.00 | 0.10 | 0.00 | 93 | 1011.5 |
| 20260510041604 | 48 | 186 | 0.0 | 0.0 | 0.00 | 0.10 | 0.00 | 93 | 1011.6 |
| 20260510041045 | 48 | 186 | 0.0 | 0.0 | 0.00 | 0.10 | 0.00 | 93 | 1011.5 |
| 20260510040543 | 48 | 185 | 0.0 | 0.0 | 0.00 | 0.10 | 0.00 | 93 | 1011.5 |
| 20260510040021 | 48 | 185 | 0.0 | 0.0 | 0.00 | 0.10 | 0.00 | 93 | 1011.5 |
| 20260510035751 | 48 | 185 | 0.0 | 0.0 | 0.00 | 0.10 | 0.10 | 93 | 1011.4 |
| 20260510035015 | 48 | 185 | 0.0 | 0.0 | 0.00 | 0.10 | 0.10 | 93 | 1011.5 |
| 20260510034500 | 48 | 185 | 0.0 | 0.0 | 0.00 | 0.10 | 0.10 | 93 | 1011.3 |
| 20260510033939 | 48 | 185 | 0.0 | 0.0 | 0.00 | 0.10 | 0.10 | 92 | 1011.2 |
| 20260510033436 | 48 | 185 | 0.0 | 0.0 | 0.00 | 0.10 | 0.10 | 92 | 1011.1 |
| 20260510032910 | 48 | 186 | 0.0 | 0.0 | 0.00 | 0.10 | 0.10 | 92 | 1011.1 |
| 20260510032408 | 48 | 185 | 0.0 | 0.0 | 0.00 | 0.10 | 0.10 | 92 | 1011.1 |
| 20260510031852 | 48 | 186 | 0.0 | 0.0 | 0.00 | 0.10 | 0.10 | 92 | 1011.1 |
| 20260510031327 | 48 | 185 | 0.0 | 0.0 | 0.00 | 0.10 | 0.10 | 92 | 1011.1 |
| 20260510030822 | 48 | 186 | 0.0 | 0.0 | 0.00 | 0.10 | 0.10 | 92 | 1011.1 |
| 20260510030323 | 48 | 185 | 0.0 | 0.0 | 0.00 | 0.10 | 0.10 | 92 | 1011.2 |
| 20260510025759 | 48 | 185 | 0.0 | 0.0 | 0.00 | 0.10 | 0.10 | 92 | 1011.1 |
| 20260510025306 | 49 | 185 | 0.0 | 0.0 | 0.00 | 0.10 | 0.10 | 92 | 1011.0 |
| 20260510024801 | 49 | 186 | 0.0 | 0.0 | 0.00 | 0.10 | 0.10 | 92 | 1010.9 |
| 20260510024301 | 49 | 186 | 0.0 | 0.0 | 0.00 | 0.10 | 0.10 | 92 | 1010.9 |
| 20260510023739 | 49 | 185 | 0.0 | 0.0 | 0.00 | 0.10 | 0.10 | 92 | 1010.9 |
| 20260510023509 | 49 | 186 | 0.0 | 0.0 | 0.00 | 0.10 | 0.10 | 92 | 1011.0 |
| 20260510022730 | 49 | 186 | 0.0 | 0.0 | 0.00 | 0.10 | 0.10 | 92 | 1010.9 |
| 20260510022229 | 50 | 186 | 0.0 | 0.0 | 0.00 | 0.10 | 0.10 | 92 | 1011.0 |
| 20260510021730 | 50 | 185 | 0.0 | 0.0 | 0.00 | 0.10 | 0.10 | 92 | 1010.9 |
| 20260510021227 | 50 | 185 | 0.0 | 0.0 | 0.00 | 0.10 | 0.10 | 92 | 1010.9 |
| 20260510020725 | 50 | 186 | 0.0 | 0.0 | 0.00 | 0.10 | 0.10 | 91 | 1011.0 |
| 20260510020219 | 50 | 186 | 0.0 | 0.0 | 0.00 | 0.10 | 0.10 | 91 | 1011.0 |
| 20260510015955 | 50 | 185 | 0.0 | 0.0 | 0.00 | 0.10 | 0.10 | 91 | 1011.0 |
| 20260510015216 | 50 | 186 | 0.0 | 0.0 | 0.00 | 0.10 | 0.10 | 91 | 1011.0 |
| 20260510014715 | 50 | 186 | 0.0 | 0.0 | 0.00 | 0.10 | 0.10 | 89 | 1010.9 |
| 20260510014154 | 50 | 185 | 0.0 | 0.0 | 0.00 | 0.10 | 0.10 | 89 | 1011.0 |
| 20260510013652 | 51 | 185 | 0.0 | 0.0 | 0.00 | 0.10 | 0.10 | 89 | 1010.9 |
| 20260510013421 | 51 | 186 | 0.0 | 0.0 | 0.00 | 0.10 | 0.10 | 89 | 1010.9 |
| 20260510012652 | 51 | 185 | 0.0 | 0.0 | 0.00 | 0.10 | 0.10 | 88 | 1010.9 |
| 20260510012126 | 51 | 185 | 0.0 | 0.0 | 0.00 | 0.10 | 0.10 | 87 | 1011.0 |
| 20260510011613 | 51 | 186 | 0.0 | 0.0 | 0.00 | 0.10 | 0.10 | 87 | 1010.8 |
| 20260510011047 | 51 | 185 | 0.0 | 0.0 | 0.00 | 0.10 | 0.10 | 87 | 1010.8 |
| 20260510010523 | 51 | 185 | 0.0 | 0.0 | 0.00 | 0.10 | 0.10 | 87 | 1010.9 |
| 20260510010019 | 51 | 185 | 0.0 | 0.0 | 0.00 | 0.10 | 0.10 | 86 | 1010.8 |
| 20260510005451 | 52 | 186 | 0.0 | 0.0 | 0.00 | 0.10 | 0.10 | 85 | 1010.7 |
| 20260510004928 | 52 | 186 | 0.0 | 0.0 | 0.00 | 0.10 | 0.10 | 85 | 1010.7 |
| 20260510004636 | 52 | 185 | 0.0 | 0.0 | 0.00 | 0.10 | 0.10 | 85 | 1010.6 |
| 20260510003859 | 52 | 186 | 0.0 | 0.0 | 0.00 | 0.10 | 0.10 | 85 | 1010.5 |
| 20260510003331 | 53 | 186 | 0.0 | 0.0 | 0.00 | 0.10 | 0.10 | 85 | 1010.5 |
| 20260510003102 | 52 | 185 | 0.0 | 0.0 | 0.00 | 0.10 | 0.10 | 82 | 1010.4 |
| 20260510002321 | 53 | 185 | 0.0 | 0.0 | 0.00 | 0.10 | 0.10 | 82 | 1010.4 |
| 20260510001824 | 53 | 185 | 0.0 | 0.0 | 0.00 | 0.10 | 0.10 | 82 | 1010.4 |
| 20260510001254 | 53 | 186 | 0.0 | 0.0 | 0.00 | 0.10 | 0.10 | 82 | 1010.4 |
| 20260510000742 | 53 | 185 | 0.0 | 0.0 | 0.00 | 0.10 | 0.10 | 81 | 1010.5 |
| 20260510000241 | 54 | 185 | 0.0 | 0.0 | 0.00 | 0.10 | 0.10 | 81 | 1010.4 |
| 20260509235723 | 54 | 185 | 0.0 | 0.0 | 0.00 | 0.10 | 0.10 | 80 | 1010.5 |
| 20260509235453 | 54 | 186 | 0.0 | 0.0 | 0.00 | 0.10 | 0.10 | 80 | 1010.3 |
| 20260509234719 | 54 | 186 | 0.0 | 0.0 | 0.00 | 0.10 | 0.10 | 80 | 1010.4 |
| 20260509234220 | 55 | 186 | 0.0 | 0.0 | 0.00 | 0.10 | 0.10 | 80 | 1010.3 |
| 20260509233724 | 55 | 185 | 0.0 | 0.0 | 0.00 | 0.10 | 0.10 | 80 | 1010.3 |
| 20260509233216 | 55 | 186 | 0.0 | 0.0 | 0.00 | 0.10 | 0.10 | 79 | 1010.3 |
| 20260509232720 | 55 | 186 | 0.0 | 0.0 | 0.00 | 0.10 | 0.10 | 79 | 1010.3 |
| 20260509232432 | 56 | 186 | 0.0 | 0.0 | 0.00 | 0.10 | 0.10 | 79 | 1010.5 |
| 20260509231635 | 56 | 186 | 0.0 | 0.0 | 0.00 | 0.10 | 0.10 | 79 | 1010.4 |
| 20260509231126 | 56 | 186 | 0.0 | 0.0 | 0.00 | 0.10 | 0.10 | 79 | 1010.3 |
| 20260509230625 | 56 | 186 | 0.0 | 0.0 | 0.00 | 0.10 | 0.10 | 78 | 1010.4 |
| 20260509230121 | 56 | 185 | 0.0 | 0.0 | 0.00 | 0.10 | 0.10 | 78 | 1010.3 |
| 20260509225619 | 56 | 186 | 0.0 | 0.0 | 0.00 | 0.10 | 0.10 | 78 | 1010.2 |
| 20260509225102 | 56 | 186 | 0.0 | 0.0 | 0.00 | 0.10 | 0.10 | 79 | 1010.2 |
| 20260509224837 | 56 | 186 | 0.0 | 0.0 | 0.00 | 0.10 | 0.10 | 80 | 1010.3 |
| 20260509224037 | 56 | 186 | 0.0 | 0.0 | 0.00 | 0.10 | 0.10 | 80 | 1010.4 |
| 20260509223806 | 56 | 185 | 0.0 | 0.0 | 0.00 | 0.10 | 0.10 | 81 | 1010.5 |
| 20260509223305 | 56 | 186 | 0.0 | 0.0 | 0.00 | 0.10 | 0.10 | 81 | 1010.4 |
| 20260509222536 | 56 | 185 | 0.0 | 0.0 | 0.00 | 0.10 | 0.10 | 81 | 1010.4 |
| 20260509222008 | 56 | 186 | 0.0 | 1.0 | 0.00 | 0.10 | 0.10 | 81 | 1010.3 |
| 20260509221736 | 56 | 186 | 0.0 | 1.0 | 0.00 | 0.10 | 0.10 | 82 | 1010.3 |
| 20260509221000 | 56 | 186 | 0.0 | 1.0 | 0.00 | 0.10 | 0.10 | 81 | 1010.3 |
| 20260509220458 | 56 | 186 | 0.0 | 2.0 | 0.00 | 0.10 | 0.10 | 82 | 1010.4 |
| 20260509215931 | 56 | 186 | 0.0 | 1.0 | 0.00 | 0.10 | 0.10 | 81 | 1010.4 |
| 20260509215658 | 56 | 185 | 1.0 | 4.0 | 0.00 | 0.10 | 0.10 | 81 | 1010.7 |
| 20260509215134 | 56 | 188 | 0.0 | 4.0 | 0.03 | 0.10 | 0.10 | 81 | 1010.6 |
| 20260509214606 | 56 | 174 | 0.0 | 2.0 | 0.06 | 0.10 | 0.10 | 81 | 1010.6 |
| 20260509214101 | 56 | 184 | 0.0 | 2.0 | 0.07 | 0.10 | 0.10 | 81 | 1010.7 |
| 20260509213315 | 55 | 160 | 0.0 | 0.0 | 0.07 | 0.10 | 0.10 | 81 | 1010.8 |
| 20260509212814 | 55 | 160 | 0.0 | 0.0 | 0.07 | 0.10 | 0.10 | 81 | 1010.8 |
| 20260509212317 | 55 | 160 | 0.0 | 0.0 | 0.07 | 0.10 | 0.10 | 81 | 1010.7 |
| 20260509211748 | 55 | 160 | 0.0 | 0.0 | 0.07 | 0.10 | 0.10 | 80 | 1010.6 |
| 20260509211220 | 55 | 160 | 0.0 | 0.0 | 0.08 | 0.10 | 0.10 | 80 | 1010.6 |
| 20260509210719 | 55 | 160 | 0.0 | 0.0 | 0.08 | 0.10 | 0.10 | 80 | 1010.7 |
| 20260509210159 | 55 | 160 | 0.0 | 0.0 | 0.08 | 0.10 | 0.10 | 79 | 1010.4 |
| 20260509205655 | 55 | 160 | 0.0 | 0.0 | 0.08 | 0.10 | 0.10 | 79 | 1010.5 |
| 20260509205154 | 55 | 160 | 0.0 | 0.0 | 0.07 | 0.09 | 0.09 | 78 | 1010.5 |
| 20260509204925 | 56 | 160 | 0.0 | 1.0 | 0.03 | 0.05 | 0.05 | 78 | 1010.4 |
| 20260509204157 | 56 | 160 | 0.0 | 1.0 | 0.01 | 0.03 | 0.03 | 78 | 1010.3 |
| 20260509203921 | 56 | 160 | 0.0 | 2.0 | 0.01 | 0.03 | 0.03 | 78 | 1010.3 |
| 20260509203414 | 56 | 160 | 0.0 | 2.0 | 0.01 | 0.03 | 0.03 | 78 | 1010.1 |
| 20260509202912 | 56 | 145 | 0.0 | 1.0 | 0.01 | 0.03 | 0.03 | 78 | 1010.4 |
| 20260509202112 | 56 | 144 | 0.0 | 2.0 | 0.01 | 0.03 | 0.03 | 77 | 1010.4 |
| 20260509201842 | 57 | 247 | 0.0 | 2.0 | 0.00 | 0.02 | 0.02 | 76 | 1010.6 |
| 20260509201311 | 57 | 155 | 0.0 | 2.0 | 0.00 | 0.02 | 0.02 | 76 | 1010.6 |
| 20260509200538 | 58 | 130 | 1.0 | 2.0 | 0.01 | 0.02 | 0.02 | 76 | 1010.6 |
| 20260509200036 | 58 | 130 | 0.0 | 2.0 | 0.01 | 0.02 | 0.02 | 77 | 1010.6 |
| 20260509195506 | 58 | 138 | 0.0 | 2.0 | 0.01 | 0.02 | 0.02 | 77 | 1010.5 |
| 20260509195005 | 58 | 138 | 0.0 | 2.0 | 0.01 | 0.02 | 0.02 | 76 | 1010.9 |
| 20260509194440 | 58 | 128 | 0.0 | 2.0 | 0.01 | 0.02 | 0.02 | 77 | 1010.8 |
| 20260509193911 | 57 | 128 | 0.0 | 2.0 | 0.01 | 0.02 | 0.02 | 77 | 1011.0 |
| 20260509193342 | 57 | 128 | 0.0 | 3.0 | 0.01 | 0.02 | 0.02 | 77 | 1011.1 |
| 20260509192841 | 57 | 124 | 0.0 | 3.0 | 0.01 | 0.02 | 0.02 | 77 | 1011.3 |
| 20260509192312 | 57 | 122 | 0.0 | 1.0 | 0.01 | 0.02 | 0.02 | 78 | 1011.3 |
| 20260509191744 | 57 | 122 | 0.0 | 1.0 | 0.01 | 0.02 | 0.02 | 78 | 1011.2 |
| 20260509191516 | 57 | 122 | 0.0 | 1.0 | 0.01 | 0.02 | 0.02 | 77 | 1011.3 |
| 20260509190718 | 57 | 96 | 0.0 | 1.0 | 0.00 | 0.01 | 0.01 | 77 | 1011.4 |
| 20260509190212 | 58 | 96 | 0.0 | 1.0 | 0.00 | 0.01 | 0.01 | 78 | 1011.4 |
| 20260509185655 | 58 | 114 | 0.0 | 1.0 | 0.00 | 0.01 | 0.01 | 77 | 1011.5 |
| 20260509185420 | 58 | 126 | 0.0 | 2.0 | 0.00 | 0.01 | 0.01 | 77 | 1011.4 |
| 20260509184851 | 59 | 126 | 0.0 | 2.0 | 0.00 | 0.01 | 0.01 | 77 | 1011.5 |
| 20260509184115 | 59 | 126 | 0.0 | 2.0 | 0.00 | 0.01 | 0.01 | 76 | 1011.5 |
| 20260509183611 | 59 | 110 | 0.0 | 2.0 | 0.01 | 0.01 | 0.01 | 76 | 1011.5 |
| 20260509183055 | 59 | 94 | 1.0 | 2.0 | 0.01 | 0.01 | 0.01 | 76 | 1011.5 |
| 20260509182528 | 59 | 90 | 1.0 | 2.0 | 0.01 | 0.01 | 0.01 | 75 | 1011.5 |
| 20260509182027 | 59 | 98 | 0.0 | 2.0 | 0.01 | 0.01 | 0.01 | 74 | 1011.5 |
| 20260509181502 | 60 | 106 | 0.0 | 2.0 | 0.01 | 0.01 | 0.01 | 73 | 1011.4 |
| 20260509181004 | 60 | 106 | 0.0 | 4.0 | 0.01 | 0.01 | 0.01 | 73 | 1011.4 |
| 20260509180502 | 60 | 92 | 1.0 | 4.0 | 0.01 | 0.01 | 0.01 | 74 | 1011.5 |
| 20260509180000 | 60 | 101 | 1.0 | 3.0 | 0.01 | 0.01 | 0.01 | 73 | 1011.3 |
| 20260509175456 | 60 | 98 | 0.0 | 2.0 | 0.01 | 0.01 | 0.01 | 73 | 1011.3 |
| 20260509174957 | 60 | 128 | 0.0 | 2.0 | 0.01 | 0.01 | 0.01 | 73 | 1011.3 |
| 20260509174433 | 60 | 128 | 0.0 | 3.0 | 0.01 | 0.01 | 0.01 | 73 | 1011.3 |
| 20260509173936 | 60 | 90 | 1.0 | 3.0 | 0.00 | 0.00 | 0.00 | 74 | 1011.4 |
| 20260509173641 | 60 | 102 | 1.0 | 4.0 | 0.00 | 0.00 | 0.00 | 74 | 1011.4 |
| 20260509172912 | 60 | 91 | 2.0 | 5.0 | 0.00 | 0.00 | 0.00 | 73 | 1011.4 |
| 20260509172349 | 60 | 79 | 3.0 | 5.0 | 0.00 | 0.00 | 0.00 | 71 | 1011.2 |
| 20260509171844 | 61 | 77 | 3.0 | 5.0 | 0.00 | 0.00 | 0.00 | 69 | 1011.5 |
| 20260509171345 | 61 | 77 | 3.0 | 3.0 | 0.00 | 0.00 | 0.00 | 69 | 1011.5 |
| 20260509170243 | 62 | 89 | 3.0 | 6.0 | 0.00 | 0.00 | 0.00 | 68 | 1011.2 |
| 20260509165724 | 62 | 72 | 3.0 | 6.0 | 0.00 | 0.00 | 0.00 | 65 | 1011.4 |
| 20260509165226 | 63 | 83 | 3.0 | 6.0 | 0.00 | 0.00 | 0.00 | 65 | 1011.4 |
| 20260509164706 | 63 | 69 | 3.0 | 6.0 | 0.00 | 0.00 | 0.00 | 65 | 1011.3 |
| 20260509164153 | 64 | 75 | 4.0 | 7.0 | 0.00 | 0.00 | 0.00 | 63 | 1011.2 |
| 20260509163657 | 64 | 83 | 5.0 | 13.0 | 0.00 | 0.00 | 0.00 | 61 | 1011.3 |
| 20260509163133 | 64 | 70 | 4.0 | 13.0 | 0.00 | 0.00 | 0.00 | 62 | 1011.4 |
| 20260509162633 | 64 | 90 | 4.0 | 9.0 | 0.00 | 0.00 | 0.00 | 63 | 1011.3 |
| 20260509162404 | 64 | 42 | 5.0 | 9.0 | 0.00 | 0.00 | 0.00 | 62 | 1011.6 |
| 20260509161904 | 64 | 44 | 5.0 | 9.0 | 0.00 | 0.00 | 0.00 | 63 | 1011.6 |
| 20260509161336 | 64 | 90 | 5.0 | 9.0 | 0.00 | 0.00 | 0.00 | 62 | 1011.7 |
| 20260509160547 | 64 | 48 | 4.0 | 9.0 | 0.00 | 0.00 | 0.00 | 61 | 1011.7 |
| 20260509160047 | 64 | 82 | 4.0 | 9.0 | 0.00 | 0.00 | 0.00 | 63 | 1011.6 |
| 20260509155538 | 64 | 74 | 5.0 | 10.0 | 0.00 | 0.00 | 0.00 | 61 | 1011.8 |
| 20260509155039 | 65 | 72 | 5.0 | 18.0 | 0.00 | 0.00 | 0.00 | 61 | 1011.8 |
| 20260509154512 | 65 | 82 | 6.0 | 18.0 | 0.00 | 0.00 | 0.00 | 62 | 1011.9 |
| 20260509154004 | 64 | 84 | 5.0 | 11.0 | 0.00 | 0.00 | 0.00 | 62 | 1011.9 |
| 20260509153502 | 64 | 43 | 5.0 | 13.0 | 0.00 | 0.00 | 0.00 | 65 | 1012.0 |